STARLINK-30249 (57618 NORAD) Tracking and Keplerian Element Data

This shows tracking and keplerian element data for the satellite.

Feedback or suggestion? Click here.




ElementValue
Catalog57618
NameSTARLINK-30249
Epoch Orbit2470
Epoch Day13.1436244
Epoch Year2024
RAAN35.9342
Inclination43.0038
Eccentricity0.0001074
Argument of Perigee267.9322
Mean Anonmoly92.1397
Mean Motion15.02533754
Decay Rate0.00020394
L11 57618U 23119S 24013.14362440 .00020394 00000+0 15205-2 0 9999
L22 57618 43.0038 35.9342 0001074 267.9322 92.1397 15.02533754 24705



Live tracking and technical data element details for STARLINK-30249 (NORAD 57618). STARLINK-30249 can be tracked NOW for your location showing map with azimuth and elevation plus other details from your city location.







IsCatalogInMostPopularTable: catalog: 57618, numindb: 22
Update: records affected: 1



GetName: 57618 STARLINK-30249

Hit Count: updated at: Thu, 29 Feb 2024 11:56:39 GMT